This is the latest recevied weather packets stored in our database for station/object K8JMX-13. If no packets are shown the sender has not sent any weather packets the latest 10 day(s).
| Time | Temp. | Humidity | Pressure | Rain* | Wind** | Luminosity | Snow |
|---|---|---|---|---|---|---|---|
| 1777987364 | 16.67° C | 72% | 1006.9 hPa | 0 mm | - | 112 W/m² | - |
| 1777987061 | 16.67° C | 72% | 1007 hPa | 0 mm | - | 125 W/m² | - |
| 1777986758 | 16.11° C | 73% | 1007 hPa | 0 mm | - | 120 W/m² | - |
| 1777986456 | 16.11° C | 73% | 1007 hPa | 0 mm | - | 106 W/m² | - |
| 1777986154 | 16.11° C | 73% | 1007 hPa | 0 mm | - | 88 W/m² | - |
| 1777985851 | 16.11° C | 73% | 1007.2 hPa | 0 mm | - | 76 W/m² | - |
| 1777985548 | 16.11° C | 73% | 1006.9 hPa | 0 mm | - | 82 W/m² | - |
| 1777985244 | 16.11° C | 73% | 1006.9 hPa | 0 mm | - | 71 W/m² | - |
| 1777984941 | 16.11° C | 73% | 1006.8 hPa | 0 mm | - | 78 W/m² | - |
| 1777984637 | 16.11° C | 73% | 1006.9 hPa | 0 mm | - | 65 W/m² | - |
| 1777984334 | 15.56° C | 73% | 1006.8 hPa | 0 mm | - | 55 W/m² | - |
| 1777984030 | 15.56° C | 73% | 1006.7 hPa | 0 mm | - | 44 W/m² | - |
| 1777983728 | 15.56° C | 73% | 1006.4 hPa | 0 mm | - | 47 W/m² | - |
| 1777983424 | 15.56° C | 73% | 1006.4 hPa | 0 mm | - | 43 W/m² | - |
| 1777983121 | 15.56° C | 73% | 1006.1 hPa | 0 mm | - | 28 W/m² | - |
| 1777982818 | 15.56° C | 73% | 1006.2 hPa | 0 mm | - | 27 W/m² | - |
| 1777982514 | 15.56° C | 73% | 1005.9 hPa | 0 mm | - | 20 W/m² | - |
| 1777982212 | 15.56° C | 73% | 1005.9 hPa | 0 mm | - | 11 W/m² | - |
| 1777981911 | 15.56° C | 73% | 1006.1 hPa | 0 mm | - | 9 W/m² | - |
| 1777981608 | 15.56° C | 73% | 1005.9 hPa | 0 mm | - | 11 W/m² | - |
| 1777981304 | 15.56° C | 72% | 1005.9 hPa | 0 mm | - | 16 W/m² | - |
| 1777981000 | 15.56° C | 72% | 1006.1 hPa | 0 mm | - | 15 W/m² | - |
| 1777980697 | 15.56° C | 72% | 1006.3 hPa | 0 mm | - | 14 W/m² | - |
| 1777980393 | 15.56° C | 72% | 1006.1 hPa | 0 mm | - | 10 W/m² | - |
| 1777980092 | 16.11° C | 71% | 1006.4 hPa | 0 mm | - | 10 W/m² | - |
* Rain latest hour (hover to see other rain measurements)
** Current wind speed in m/s (hover to see current wind gust speed)